NOAA 16 DEB, 41419

Orbit data source: Space-Track

NOAA 16 DEB, 41419 is space debris in SSO originally from a launch on Thu, 21 Sep 2000 UTC launched from the Air Force Western Test Range (AFWTR). Debris objects in space refer to the collection of defunct objects orbiting the Earth. Examples of debris include non-operational satellites, rocket bodies, and fragments generated from explosions, collisions, or faulty payload assembly.

Loading next visibility...
Identifier
41419, 2000-055KY
Orbit
SSO
Country
Flag of USUS
Related business
Manufacturer
Unknown
Mission
Spacecraft
Bus & Motor
Unknown
Mass
Unknown
Launch date (UTC)
2000-09-21 (26 years ago)
Launch vehicle
Unknown
Launch site
Air Force Western Test Range (AFWTR)
Object type
Payload
Rocket body
Debris
Shape & HBR
Unknown shape, 0.1 m
Radar Cross Section
Small (<0.1 m²)

Expand to show TLE details & history
Last TLE update: 12 hours ago

TLE from 12 hours ago
0 NOAA 16 DEB
1 41419U 00055KY  26100.31390432  .00035835  00000-0  58218-2 0  9993
2 41419  98.8456 235.1093 0012044 243.8618 116.1347 14.70942595524861
Epoch: 2026-04-10T07:32Z
TLE epoch observation values (Epoch: 2026-04-10T07:32:01.333Z)
Latitude
-0.00005°
Longitude
-76.44559°
Altitude
664.782 km
Speed
7.523 km/s
True Right ascension
15h 40m 26s
True Declination
0° 00' 00"
Sunlit
Object was in full shadow at epoch
Visualization orbit readout
Latitude
Unknown
Longitude
Unknown
Altitude
Unknown
Speed
Unknown
Apparent Right ascension
Unknown
Apparent Declination
Unknown
Sunlit
N/A
Visualization observer readout
Local Sidereal Time
01:35:07
Azimuth
Unknown
Elevation
Unknown
Doppler factor
Unknown
Orbital elements
Apogee altitude
663.629 km
Perigee altitude
646.687 km
Semi-major axis
7,033.295 km
Eccentricity
0.0012
Inclination
98.8456°
RAAN
235.1093°
Arg. of periapsis
243.8618°
True anomaly
116.25852°
Mean anomaly
116.1347°
Eccentric anomaly
116.19662°
Mean motion
3.67964 °/min
Orbital period
97.84 mins
BSTAR
0.0058218
Loading maneuver chart data...
Computing Atmospheric mass density...
Loading historical data...
Loading historical data...
Loading historical data...
Loading historical data...
Loading historical data...
Loading historical data...
Loading historical data...

Documentation

Showing up to 5 results
|